Wetterdaten: aktuell Samstag, 31.10.2020 05:30
Datum Zeit Temp. A. Feuchte A. Luftdruck Regen Wind Richtung Richtung Windben
31.10.2020 05:30 9,2 C 80 % 1023,0 hPa 0,0 l/m 0,0 km/h S-SW 196 0,0 km/h
31.10.2020 05:29 9,2 C 80 % 1023,0 hPa 0,0 l/m 0,0 km/h S-SW 196 0,0 km/h
31.10.2020 05:25 9,4 C 80 % 1023,1 hPa 0,0 l/m 0,0 km/h S-SW 196 0,0 km/h
31.10.2020 05:24 9,4 C 80 % 1023,1 hPa 0,0 l/m 0,0 km/h S-SW 196 0,0 km/h
31.10.2020 05:20 9,6 C 80 % 1023,2 hPa 0,0 l/m 0,0 km/h S-SW 208 0,0 km/h
31.10.2020 05:15 9,8 C 80 % 1023,2 hPa 0,0 l/m 0,0 km/h S-SW 208 0,0 km/h
31.10.2020 05:10 10,1 C 80 % 1023,2 hPa 0,0 l/m 0,0 km/h S-SW 208 0,0 km/h
31.10.2020 05:04 10,3 C 80 % 1023,1 hPa 0,0 l/m 0,0 km/h S-SW 208 0,0 km/h
31.10.2020 05:00 10,4 C 80 % 1023,2 hPa 0,0 l/m 0,0 km/h S-SW 208 0,0 km/h
31.10.2020 04:59 10,5 C 80 % 1023,2 hPa 0,0 l/m 0,0 km/h S-SW 208 0,0 km/h
31.10.2020 04:55 10,7 C 79 % 1023,2 hPa 0,0 l/m 0,0 km/h S-SW 194 0,0 km/h
31.10.2020 04:50 10,9 C 79 % 1023,2 hPa 0,0 l/m 0,0 km/h S-SW 202 3,2 km/h
31.10.2020 04:45 11,4 C 77 % 1023,2 hPa 0,0 l/m 0,0 km/h W-NW 303 0,0 km/h
31.10.2020 04:40 12,1 C 75 % 1023,1 hPa 0,0 l/m 0,0 km/h S-SW 208 0,0 km/h
31.10.2020 04:39 12,2 C 75 % 1023,1 hPa 0,0 l/m 0,0 km/h S-SO 163 1,6 km/h
31.10.2020 04:35 12,6 C 75 % 1023,1 hPa 0,0 l/m 0,0 km/h N-NW 343 0,0 km/h
31.10.2020 04:34 12,6 C 75 % 1023,1 hPa 0,0 l/m 0,0 km/h NW 310 0,0 km/h
31.10.2020 04:30 12,7 C 74 % 1023,1 hPa 0,0 l/m 1,8 km/h N 354 16,1 km/h
31.10.2020 04:25 12,7 C 75 % 1023,2 hPa 0,0 l/m 0,3 km/h N 355 12,9 km/h
31.10.2020 04:20 12,1 C 76 % 1023,2 hPa 0,0 l/m 1,4 km/h NW 316 16,1 km/h
31.10.2020 04:15 11,6 C 77 % 1023,2 hPa 0,0 l/m 0,0 km/h N-NO 17 0,0 km/h
31.10.2020 04:14 11,6 C 77 % 1023,2 hPa 0,0 l/m 0,0 km/h NW 313 1,6 km/h
31.10.2020 04:10 11,9 C 76 % 1023,2 hPa 0,0 l/m 0,0 km/h N 7 0,0 km/h
31.10.2020 04:09 11,9 C 76 % 1023,2 hPa 0,0 l/m 0,0 km/h N-NW 333 3,2 km/h
31.10.2020 04:05 12,4 C 75 % 1023,2 hPa 0,0 l/m 0,1 km/h N-NW 332 3,2 km/h
31.10.2020 04:00 12,4 C 76 % 1023,2 hPa 0,0 l/m 1,8 km/h N 358 16,1 km/h
31.10.2020 03:55 11,8 C 78 % 1023,2 hPa 0,0 l/m 8,0 km/h N 7 22,5 km/h
31.10.2020 03:50 10,4 C 79 % 1023,4 hPa 0,0 l/m 17,4 km/h N 358 20,9 km/h
31.10.2020 03:49 10,3 C 79 % 1023,4 hPa 0,0 l/m 8,0 km/h N-NW 327 24,1 km/h
31.10.2020 03:45 9,7 C 79 % 1023,2 hPa 0,0 l/m 0,0 km/h N-NW 332 0,0 km/h
31.10.2020 03:44 9,7 C 79 % 1023,2 hPa 0,0 l/m 0,0 km/h N-NW 341 0,0 km/h
31.10.2020 03:40 9,6 C 78 % 1023,3 hPa 0,0 l/m 1,0 km/h NO 42 16,1 km/h
31.10.2020 03:35 9,6 C 79 % 1023,4 hPa 0,0 l/m 0,0 km/h SW 214 0,0 km/h
31.10.2020 03:30 9,7 C 79 % 1023,3 hPa 0,0 l/m 0,0 km/h S-SW 210 0,0 km/h
31.10.2020 03:25 9,9 C 78 % 1023,2 hPa 0,0 l/m 0,0 km/h S-SW 212 0,0 km/h
31.10.2020 03:24 9,9 C 78 % 1023,2 hPa 0,0 l/m 0,0 km/h S-SW 213 0,0 km/h
31.10.2020 03:20 9,7 C 75 % 1023,2 hPa 0,0 l/m 0,0 km/h O-NO 73 0,0 km/h
31.10.2020 03:19 9,7 C 75 % 1023,1 hPa 0,0 l/m 0,0 km/h O-NO 73 1,6 km/h
31.10.2020 03:15 9,2 C 74 % 1023,1 hPa 0,0 l/m 0,1 km/h N 356 4,8 km/h
31.10.2020 03:10 8,8 C 74 % 1023,2 hPa 0,0 l/m 0,0 km/h NW 304 1,6 km/h
31.10.2020 03:05 8,8 C 75 % 1023,2 hPa 0,0 l/m 0,1 km/h SW 235 3,2 km/h
31.10.2020 03:00 8,9 C 75 % 1023,2 hPa 0,0 l/m 0,0 km/h S 186 0,0 km/h
31.10.2020 02:59 8,9 C 75 % 1023,2 hPa 0,0 l/m 0,0 km/h S 186 0,0 km/h
31.10.2020 02:55 9,1 C 76 % 1023,2 hPa 0,0 l/m 0,0 km/h SW 215 0,0 km/h
31.10.2020 02:54 9,1 C 76 % 1023,3 hPa 0,0 l/m 0,0 km/h SW 214 3,2 km/h
31.10.2020 02:50 9,3 C 75 % 1023,2 hPa 0,0 l/m 0,0 km/h W-SW 245 0,0 km/h
31.10.2020 02:45 9,6 C 72 % 1023,1 hPa 0,0 l/m 0,6 km/h S 171 11,3 km/h
31.10.2020 02:40 9,0 C 71 % 1023,2 hPa 0,0 l/m 1,5 km/h NW 318 17,7 km/h
31.10.2020 02:34 8,6 C 72 % 1023,2 hPa 0,0 l/m 0,0 km/h S-SW 210 0,0 km/h
31.10.2020 02:30 8,6 C 72 % 1023,2 hPa 0,0 l/m 0,0 km/h W-SW 254 0,0 km/h
31.10.2020 02:29 8,6 C 72 % 1023,1 hPa 0,0 l/m 0,0 km/h W-SW 254 0,0 km/h
31.10.2020 02:25 8,6 C 72 % 1023,2 hPa 0,0 l/m 0,0 km/h NO 56 0,0 km/h
31.10.2020 02:20 8,6 C 72 % 1023,1 hPa 0,0 l/m 0,0 km/h O-SO 123 0,0 km/h
31.10.2020 02:19 8,6 C 72 % 1023,1 hPa 0,0 l/m 0,0 km/h O-SO 123 1,6 km/h
31.10.2020 02:15 8,5 C 72 % 1023,2 hPa 0,0 l/m 0,0 km/h S 169 0,0 km/h
31.10.2020 02:10 8,5 C 73 % 1023,3 hPa 0,0 l/m 0,2 km/h SW 219 6,4 km/h
31.10.2020 02:05 8,7 C 72 % 1023,2 hPa 0,0 l/m 0,0 km/h S-SO 147 0,0 km/h
31.10.2020 02:00 8,7 C 72 % 1023,2 hPa 0,0 l/m 0,0 km/h SO 133 0,0 km/h
31.10.2020 01:55 8,8 C 72 % 1023,3 hPa 0,0 l/m 0,0 km/h W 263 0,0 km/h
31.10.2020 01:50 8,7 C 72 % 1023,3 hPa 0,0 l/m 0,0 km/h W 279 0,0 km/h
31.10.2020 01:49 8,7 C 72 % 1023,5 hPa 0,0 l/m 0,0 km/h W 279 0,0 km/h
31.10.2020 01:45 8,7 C 72 % 1023,3 hPa 0,0 l/m 0,0 km/h W 279 0,0 km/h
31.10.2020 01:40 8,7 C 72 % 1023,4 hPa 0,0 l/m 0,0 km/h N 353 0,0 km/h
31.10.2020 01:35 8,7 C 72 % 1023,4 hPa 0,0 l/m 0,0 km/h N-NW 340 0,0 km/h
31.10.2020 01:30 8,8 C 72 % 1023,5 hPa 0,0 l/m 0,0 km/h S-SO 163 0,0 km/h
31.10.2020 01:29 8,8 C 72 % 1023,5 hPa 0,0 l/m 0,0 km/h S-SO 163 0,0 km/h
31.10.2020 01:25 8,8 C 72 % 1023,5 hPa 0,0 l/m 0,0 km/h S-SO 163 0,0 km/h
31.10.2020 01:24 8,8 C 72 % 1023,6 hPa 0,0 l/m 0,0 km/h S-SO 163 0,0 km/h
31.10.2020 01:20 8,8 C 73 % 1023,6 hPa 0,0 l/m 0,0 km/h S-SO 163 0,0 km/h
31.10.2020 01:15 8,8 C 73 % 1023,6 hPa 0,0 l/m 0,0 km/h O 79 0,0 km/h
31.10.2020 01:10 8,9 C 72 % 1023,5 hPa 0,0 l/m 0,0 km/h O-NO 68 0,0 km/h
31.10.2020 01:04 8,9 C 72 % 1023,5 hPa 0,0 l/m 0,0 km/h N 7 0,0 km/h
31.10.2020 01:00 8,8 C 72 % 1023,4 hPa 0,0 l/m 0,0 km/h N 7 0,0 km/h
31.10.2020 00:59 8,8 C 72 % 1023,5 hPa 0,0 l/m 0,0 km/h N 7 0,0 km/h
31.10.2020 00:55 8,8 C 73 % 1023,5 hPa 0,0 l/m 0,0 km/h N 353 0,0 km/h
31.10.2020 00:50 8,8 C 73 % 1023,5 hPa 0,0 l/m 0,0 km/h N 353 0,0 km/h
31.10.2020 00:45 8,9 C 73 % 1023,5 hPa 0,0 l/m 0,0 km/h NW 322 0,0 km/h
31.10.2020 00:40 8,8 C 73 % 1023,6 hPa 0,0 l/m 0,0 km/h NW 316 0,0 km/h
31.10.2020 00:39 8,8 C 73 % 1023,6 hPa 0,0 l/m 0,0 km/h NW 316 0,0 km/h
31.10.2020 00:35 8,8 C 73 % 1023,5 hPa 0,0 l/m 0,0 km/h N-NW 338 0,0 km/h
31.10.2020 00:34 8,8 C 73 % 1023,5 hPa 0,0 l/m 0,0 km/h N-NW 338 0,0 km/h
31.10.2020 00:30 8,9 C 73 % 1023,7 hPa 0,0 l/m 0,0 km/h N-NW 338 0,0 km/h
31.10.2020 00:25 8,9 C 73 % 1023,5 hPa 0,0 l/m 0,0 km/h S-SW 212 0,0 km/h
31.10.2020 00:20 8,9 C 73 % 1023,5 hPa 0,0 l/m 0,0 km/h S-SW 212 0,0 km/h
31.10.2020 00:19 8,9 C 73 % 1023,5 hPa 0,0 l/m 0,0 km/h S-SW 212 0,0 km/h
31.10.2020 00:15 9,0 C 73 % 1023,5 hPa 0,0 l/m 0,0 km/h S-SW 212 0,0 km/h
31.10.2020 00:10 9,1 C 73 % 1023,5 hPa 0,0 l/m 0,0 km/h S-SW 212 0,0 km/h
31.10.2020 00:09 9,1 C 73 % 1023,6 hPa 0,0 l/m 0,0 km/h S-SW 212 0,0 km/h
31.10.2020 00:05 9,1 C 73 % 1023,5 hPa 0,0 l/m 0,0 km/h N-NW 339 0,0 km/h
31.10.2020 00:00 9,0 C 73 % 1023,6 hPa 0,0 l/m 0,0 km/h N-NW 339 0,0 km/h
30.10.2020 23:55 8,9 C 73 % 1023,6 hPa 0,0 l/m 0,0 km/h N-NW 342 0,0 km/h
30.10.2020 23:54 8,9 C 73 % 1023,5 hPa 0,0 l/m 0,1 km/h N-NW 348 6,4 km/h
30.10.2020 23:50 8,8 C 73 % 1023,7 hPa 0,0 l/m 0,0 km/h NW 321 0,0 km/h
30.10.2020 23:49 8,9 C 73 % 1023,7 hPa 0,0 l/m 0,0 km/h NW 326 0,0 km/h
30.10.2020 23:45 8,9 C 73 % 1023,8 hPa 0,0 l/m 0,0 km/h N 2 0,0 km/h
30.10.2020 23:40 9,1 C 73 % 1023,8 hPa 0,0 l/m 0,0 km/h N-NO 12 0,0 km/h
30.10.2020 23:35 9,1 C 73 % 1023,9 hPa 0,0 l/m 0,0 km/h N-NO 12 0,0 km/h
_ Min-Zeit 06:45 11:35 14:10 - 06:00 - - 06:00
Minimum _ 5,8 C 68 % 1022,7 hPa - 0,0 km/h - - 0,0 km/h
_ Max-Zeit 11:30 16:40 08:30 06:00 03:50 - - 03:49
Maximum _ 14,0 C 80 % 1024,8 hPa 0,0 l/m 17,4 km/h
N
- - 24,1 km/h
N
Durchschnitt _ 10,0 C 74 % 1023,6 hPa #0,0 l/m 0,1 km/h N - 0,7 km/h